Flag for Portugal Weather past 2 weeks in Lisbon, Portugal

Now
61 °F

Clear.


Feels Like: 61 °F
Forecast: 62 / 83 °F
Wind: 9 mph from Northwest

Location: Lisbon Portela Airport

Current Time: May 25, 2015 at 4:41:01 AM

Latest Report: May 25, 2015 at 4:00 AM


Visibility: 10 mi

Pressure: 29.98 "Hg

Humidity: 72%

Dew point: 52 °F

Location of LisbonLocation

Historic Weather in Lisbon — Graph

°F

Lisbon temperature yesterday

Maximum temperature yesterday: 82 °F (at 3:00 PM)
Minimum temperature yesterday: 63 °F (at 1:00 AM)
Average temperature yesterday: 70 °F

Past Weeks' High & Low Weather Summary

 TemperatureHumidityPressure
High91 °F (May 17, 3:30 PM)94% (May 10, 4:30 AM)30.27 "Hg (May 10, 4:30 AM)
Low54 °F (May 20, 3:30 AM)16% (May 17, 4:00 PM)29.89 "Hg (May 18, 5:30 AM)
Average68 °F54%30.10 "Hg
* Reported May 10 3:00 AM — May 25 3:30 AM, Lisbon, Weather by CustomWeather, © 2015

Note: Actual official high and low records may vary slightly from our data, if they occured in-between our weather recording intervals... More about our weather records

Advertising

Lisbon weather history for previous 24 hours

 ConditionsComfort  
Time TempWeatherWind HumidityBarometerVisibility
3:30 AM
Mon, May 25
63 °FClear.9 mph68%29.98 "Hg10 mi
3:00 AM63 °FClear.10 mph68%29.95 "Hg10 mi
2:30 AM63 °FClear.10 mph68%29.98 "Hg10 mi
2:00 AM64 °FClear.12 mph60%29.98 "Hg10 mi
1:30 AM64 °FClear.12 mph60%29.98 "Hg10 mi
1:00 AM66 °FClear.13 mph52%29.98 "Hg10 mi
12:30 AM66 °FClear.13 mph52%29.98 "Hg10 mi
12:00 AM66 °FClear.13 mph49%29.98 "Hg10 mi
11:30 PM
Sun, May 24
66 °FClear.14 mph46%29.98 "Hg10 mi
11:00 PM66 °FPassing clouds.13 mph46%29.98 "HgN/A
10:30 PM68 °FClear.15 mph40%29.98 "Hg10 mi
10:01 PM68 °FClear.18 mph40%29.95 "Hg10 mi
9:30 PM68 °FSunny.22 mph43%29.95 "Hg10 mi
9:00 PM68 °FPassing clouds.21 mph46%29.95 "HgN/A
8:48 PM68 °FPassing clouds.17 mph46%29.95 "HgN/A
8:30 PM70 °FSunny.12 mph43%29.95 "Hg10 mi
8:00 PM72 °FPassing clouds.16 mph38%29.95 "HgN/A
7:30 PM73 °FSunny.20 mph38%29.92 "Hg10 mi
7:00 PM75 °FPassing clouds.18 mph34%29.92 "HgN/A
6:30 PM77 °FPassing clouds.18 mph32%29.92 "HgN/A
6:00 PM79 °FSunny.20 mph28%29.92 "Hg10 mi
5:30 PM81 °FPassing clouds.15 mph26%29.92 "HgN/A
5:00 PM79 °FSunny.13 mph32%29.92 "Hg10 mi
4:30 PM79 °FSunny.13 mph32%29.92 "Hg10 mi
4:00 PM77 °FSunny.14 mph34%29.95 "Hg10 mi
3:30 PM77 °FSunny.15 mph34%29.95 "Hg10 mi
3:00 PM82 °FPassing clouds.7 mph25%29.95 "HgN/A
2:30 PM81 °FPassing clouds.8 mph26%29.95 "HgN/A
2:00 PM81 °FPassing clouds.9 mph26%29.95 "HgN/A
1:30 PM79 °FPassing clouds.10 mph28%29.98 "HgN/A
1:00 PM79 °FPassing clouds.12 mph30%29.98 "HgN/A
12:30 PM77 °FPassing clouds.12 mph32%29.98 "HgN/A
12:00 PM75 °FPassing clouds.10 mph34%29.98 "HgN/A
11:30 AM75 °FSunny.12 mph34%29.98 "Hg10 mi
11:00 AM72 °FSunny.15 mph38%29.98 "Hg10 mi
10:30 AM72 °FSunny.15 mph36%29.98 "Hg10 mi
10:00 AM70 °FSunny.16 mph38%29.98 "Hg10 mi
9:30 AM70 °FSunny.15 mph38%29.95 "Hg10 mi
9:00 AM68 °FSunny.15 mph35%29.95 "Hg10 mi
8:30 AM68 °FSunny.14 mph35%29.95 "Hg10 mi
8:00 AM66 °FSunny.10 mph40%29.95 "Hg10 mi
7:30 AM66 °FSunny.9 mph40%29.95 "Hg10 mi
7:00 AM64 °FClear.7 mph43%29.95 "Hg10 mi
6:30 AM63 °FClear.8 mph49%29.92 "Hg10 mi
6:00 AM63 °FClear.8 mph52%29.92 "Hg10 mi
5:30 AM64 °FClear.9 mph49%29.92 "Hg10 mi
5:00 AM63 °FClear.9 mph52%29.92 "Hg10 mi
4:30 AM63 °FClear.10 mph56%29.92 "Hg10 mi
4:00 AM63 °FClear.10 mph56%29.92 "Hg10 mi
Weather by CustomWeather, © 2015

See weather overviewHow to use our weather pages